Location: Unspecified
(39.6958°N, 0.0000°E)
Time: 13:38:41
(UTC+00:00)

OBJECT E - Visible Passes

Search period start: 04 April 2026 00:00
Search period end: 14 April 2026 00:00
Orbit: 796 x 802 km, 98.7° (Epoch: 28 March)

Date Brightness Start Highest point End Pass type
(mag) Time Alt. Az. Time Alt. Az. Time Alt. Az.
4 Apr ? 18:47:23 10° S 18:52:20 43° W 18:57:20 10° NNW visible
6 Apr ? 19:35:20 10° SW 19:38:28 16° W 19:41:37 10° NW visible
7 Apr ? 19:06:49 10° SSW 19:11:18 28° W 19:15:49 10° NW visible
10 Apr ? 19:26:38 10° SW 19:30:19 19° W 19:34:00 10° NW visible
11 Apr ? 18:58:26 10° SSW 19:03:10 34° W 19:07:56 10° NNW visible
13 Apr ? 19:47:16 10° WSW 19:49:23 12° W 19:51:30 10° WNW visible
